Showing default

LIZZIESAT-2, 62383

Orbit data source: Space-Track

LIZZIESAT-2, 62383 is a payload satellite owned by Sidus Space (US) in LEO that was launched on Sat, 21 Dec 2024 UTC via an FALCON 9 launch vehicle from the Air Force Western Test Range (AFWTR). Payload-class satellites include a variety of spacecraft equipped with specific instruments for various scientific and technological missions. These include communications satellites like Starlink; space stations such as the ISS; scientific satellites like the Hubble; Earth observation satellites from companies like Planet Labs, Umbra, and HawkEye 360; GPS; miniature CubeSats for education and research; and military/defense satellites.

Loading next visibility...
Identifier
62383, 2024-247G
Orbit
LEO
Country
Flag of USUS
Related business
Manufacturer
Sidus Space
Mission
Operational Commercial Technology
Bus & Motor
LIZZIESAT, Unknown motor
Mass
~100 kg wet, ~100 kg dry
Launch date (UTC)
2024-12-21 (1 year ago)
Launch vehicle
FALCON 9
Launch site
Air Force Western Test Range (AFWTR)
Object type
Payload
Rocket body
Debris
Shape & HBR
Oct Cyl + 8 Pan, 0.7 m
Radar Cross Section
1.008 m², Medium (>0.1 m² and < 1m²)

Expand to show TLE details & history
Last TLE update: 11 hours ago

TLE from 11 hours ago
0 LIZZIESAT-2
1 62383U 24247G   26036.71613447  .00014698  00000-0  54489-3 0  9992
2 62383  44.9908 290.6494 0003053 150.9366 209.1687 15.27558485 62857
Epoch: 2026-02-05T17:11Z
TLE epoch observation values (Epoch: 2026-02-05T17:11:14.018Z)
Latitude
-0.00003°
Longitude
-103.02341°
Altitude
484.94 km
Speed
7.624 km/s
True Right ascension
19h 22m 35s
True Declination
0° 00' 00"
Sunlit
Object was in daylight at epoch
Visualization orbit readout
Latitude
Unknown
Longitude
Unknown
Altitude
Unknown
Speed
Unknown
Apparent Right ascension
Unknown
Apparent Declination
Unknown
Sunlit
N/A
Visualization observer readout
Local Sidereal Time
06:43:05
Azimuth
Unknown
Elevation
Unknown
Doppler factor
Unknown
Orbital elements
Apogee altitude
486.82 km
Perigee altitude
482.629 km
Semi-major axis
6,862.861 km
Eccentricity
0.00031
Inclination
44.9908°
RAAN
290.6494°
Arg. of periapsis
150.9366°
True anomaly
209.15165°
Mean anomaly
209.1687°
Eccentric anomaly
209.16018°
Mean motion
3.81756 °/min
Orbital period
94.3 mins
BSTAR
0.00054489
Loading maneuver chart data...
Computing Atmospheric mass density...
Loading historical data...
Loading historical data...
Loading historical data...
Loading historical data...
Loading historical data...
Loading historical data...
Loading historical data...

Documentation

Showing up to 5 results
|